Martinsville, VA

8:44 PM EDT on April 30, 2017 (GMT -0400)
Blue Ridge

Weather History for KMTV - May, 2009

Change the Weather History Date:

Wednesday, May 13, 2009

  Actual Average (KINT) Record (KINT)
Temperature  
Mean Temperature 60 °F -  
Max Temperature 75 °F 74 °F 90 °F (2000)
Min Temperature 46 °F 54 °F 33 °F (1969)
Degree Days  
Heating Degree Days 4    
Growing Degree Days 10 (Base 50)    
Moisture  
Dew Point 49 °F    
Average Humidity 75    
Maximum Humidity 100    
Minimum Humidity 38    
Precipitation  
Precipitation 0.00 in - - ()
Sea Level Pressure  
Sea Level Pressure 30.33 in    
Wind  
Wind Speed 1 mph (SSE)    
Max Wind Speed 7 mph    
Max Gust Speed -    
Visibility 10 miles    
Events      
Averages and records for this station are not official NWS values.
T = Trace of Precipitation, MM = Missing Value Source: NWS Daily Summary

Daily Weather History Graph

Daily Weather History Graph

Search for Another Location

Airport or City:

Trip Planner

Search our weather history database for the weather conditions in past years. The results will help you decide how hot, cold, wet, or windy it might be!

Date:

Astronomy

May. 13, 2009 Rise Set
Actual Time 6:14 AM EDT 8:18 PM EDT
Civil Twilight 5:45 AM EDT 8:47 PM EDT
Nautical Twilight 5:10 AM EDT 9:22 PM EDT
Astronomical Twilight 4:33 AM EDT 10:00 PM EDT
Moon No Moon Rise 9:27 AM EDT (5/13)
Length of Visible Light 15h 02m
Length of Day
14h 04m
Waning Gibbous, 82% of the Moon is Illuminated
May 13
Waning Gibbous
May 17
Last Quarter
May 24
New
May 30
First Quarter
Jun 7
Full

Hourly Weather History & Observations

Time (EDT) Temp. Dew Point Humidity Pressure Visibility Wind Dir Wind Speed Gust Speed Precip Events Conditions
12:00 AM 48.2 °F 46.4 °F 93% 30.29 in 10.0 mi Calm Calm - N/A   Clear
12:20 AM 48.2 °F 46.4 °F 93% 30.29 in 10.0 mi Calm Calm - N/A   Clear
12:40 AM 48.2 °F 46.4 °F 93% 30.30 in 10.0 mi Calm Calm - N/A   Clear
1:00 AM 48.2 °F 46.4 °F 93% 30.30 in 10.0 mi Calm Calm - N/A   Clear
1:20 AM 48.2 °F 46.4 °F 93% 30.30 in 10.0 mi Calm Calm - N/A   Clear
1:40 AM 48.2 °F 46.4 °F 93% 30.30 in 10.0 mi NW 3.5 mph - N/A   Clear
2:00 AM 48.2 °F 46.4 °F 93% 30.30 in 10.0 mi Calm Calm - N/A   Clear
2:20 AM 46.4 °F 46.4 °F 100% 30.30 in 10.0 mi Calm Calm - N/A   Clear
2:40 AM 46.4 °F 46.4 °F 100% 30.29 in 10.0 mi Calm Calm - N/A   Scattered Clouds
3:00 AM 46.4 °F 44.6 °F 93% 30.29 in 7.0 mi Calm Calm - N/A   Mostly Cloudy
3:20 AM 46.4 °F 46.4 °F 100% 30.29 in 10.0 mi Calm Calm - N/A   Mostly Cloudy
3:40 AM 46.4 °F 46.4 °F 100% 30.29 in 10.0 mi Calm Calm - N/A   Scattered Clouds
4:00 AM 46.4 °F 44.6 °F 93% 30.30 in 10.0 mi Calm Calm - N/A   Clear
4:20 AM 46.4 °F 46.4 °F 100% 30.30 in 10.0 mi Calm Calm - N/A   Clear
4:40 AM 46.4 °F 44.6 °F 93% 30.30 in 10.0 mi Calm Calm - N/A   Clear
5:00 AM 46.4 °F 44.6 °F 93% 30.30 in 7.0 mi Calm Calm - N/A   Scattered Clouds
5:20 AM 46.4 °F 46.4 °F 100% 30.30 in 10.0 mi Calm Calm - N/A   Mostly Cloudy
5:40 AM 46.4 °F 46.4 °F 100% 30.31 in 7.0 mi Calm Calm - N/A   Mostly Cloudy
6:00 AM 46.4 °F 44.6 °F 93% 30.32 in 7.0 mi Calm Calm - N/A   Mostly Cloudy
6:20 AM 46.4 °F 44.6 °F 93% 30.32 in 7.0 mi Calm Calm - N/A   Scattered Clouds
6:40 AM 46.4 °F 44.6 °F 93% 30.32 in 5.0 mi Calm Calm - N/A   Clear
7:20 AM 46.4 °F 46.4 °F 100% 30.35 in 7.0 mi Calm Calm - N/A   Clear
7:40 AM 51.8 °F 46.4 °F 82% 30.36 in 10.0 mi Calm Calm - N/A   Clear
8:00 AM 53.6 °F 46.4 °F 77% 30.36 in 10.0 mi Calm Calm - N/A   Clear
8:20 AM 53.6 °F 48.2 °F 82% 30.36 in 10.0 mi Calm Calm - N/A   Clear
8:40 AM 55.4 °F 48.2 °F 77% 30.36 in 10.0 mi North 3.5 mph - N/A   Clear
9:00 AM 55.4 °F 48.2 °F 77% 30.37 in 10.0 mi Calm Calm - N/A   Scattered Clouds
9:20 AM 55.4 °F 50.0 °F 82% 30.37 in 10.0 mi Calm Calm - N/A   Mostly Cloudy
9:40 AM 57.2 °F 51.8 °F 82% 30.38 in 10.0 mi NW 3.5 mph - N/A   Overcast
10:00 AM 59.0 °F 51.8 °F 77% 30.39 in 10.0 mi WNW 3.5 mph - N/A   Mostly Cloudy
10:20 AM 60.8 °F 51.8 °F 72% 30.39 in 10.0 mi Calm Calm - N/A   Scattered Clouds
10:40 AM 62.6 °F 53.6 °F 72% 30.39 in 10.0 mi Calm Calm - N/A   Clear
11:00 AM 64.4 °F 53.6 °F 68% 30.39 in 10.0 mi Calm Calm - N/A   Clear
11:20 AM 66.2 °F 55.4 °F 68% 30.39 in 10.0 mi ESE 3.5 mph - N/A   Clear
11:40 AM 66.2 °F 53.6 °F 64% 30.39 in 10.0 mi ESE 3.5 mph - N/A   Clear
12:00 PM 68.0 °F 55.4 °F 64% 30.38 in 10.0 mi SSW 3.5 mph - N/A   Clear
12:20 PM 69.8 °F 55.4 °F 60% 30.37 in 10.0 mi Calm Calm - N/A   Scattered Clouds
12:40 PM 69.8 °F 53.6 °F 56% 30.37 in 10.0 mi ESE 5.8 mph - N/A   Scattered Clouds
1:00 PM 69.8 °F 53.6 °F 56% 30.36 in 10.0 mi Calm Calm - N/A   Scattered Clouds
1:20 PM 69.8 °F 53.6 °F 56% 30.36 in 10.0 mi SE 5.8 mph - N/A   Scattered Clouds
1:40 PM 71.6 °F 53.6 °F 53% 30.35 in 10.0 mi South 3.5 mph - N/A   Clear
2:00 PM 71.6 °F 53.6 °F 53% 30.34 in 10.0 mi SSE 5.8 mph - N/A   Scattered Clouds
2:20 PM 71.6 °F 53.6 °F 53% 30.33 in 10.0 mi SE 5.8 mph - N/A   Mostly Cloudy
2:40 PM 73.4 °F 50.0 °F 44% 30.34 in 10.0 mi SE 6.9 mph - N/A   Scattered Clouds
3:00 PM 71.6 °F 50.0 °F 46% 30.33 in 10.0 mi SSE 5.8 mph - N/A   Clear
3:20 PM 71.6 °F 48.2 °F 43% 30.33 in 10.0 mi SSE 3.5 mph - N/A   Scattered Clouds
3:40 PM 75.2 °F 48.2 °F 38% 30.32 in 10.0 mi SE 6.9 mph - N/A   Scattered Clouds
4:00 PM 73.4 °F 48.2 °F 41% 30.31 in 10.0 mi SE 5.8 mph - N/A   Scattered Clouds
4:20 PM 71.6 °F 46.4 °F 41% 30.30 in 10.0 mi SSE 6.9 mph - N/A   Mostly Cloudy
4:40 PM 73.4 °F 48.2 °F 41% 30.30 in 10.0 mi SE 4.6 mph - N/A   Scattered Clouds
5:00 PM 71.6 °F 48.2 °F 43% 30.30 in 10.0 mi South 4.6 mph - N/A   Clear
5:20 PM 71.6 °F 48.2 °F 43% 30.30 in 10.0 mi SSE 4.6 mph - N/A   Mostly Cloudy
5:40 PM 73.4 °F 48.2 °F 41% 30.30 in 10.0 mi South 4.6 mph - N/A   Mostly Cloudy
6:00 PM 71.6 °F 51.8 °F 50% 30.30 in 10.0 mi Calm Calm - N/A   Scattered Clouds
6:20 PM 71.6 °F 50.0 °F 46% 30.29 in 10.0 mi SE 9.2 mph - N/A   Clear
6:40 PM 71.6 °F 50.0 °F 46% 30.29 in 10.0 mi SSE 4.6 mph - N/A   Clear
7:00 PM 71.6 °F 51.8 °F 50% 30.29 in 10.0 mi SE 4.6 mph - N/A   Clear
7:20 PM 69.8 °F 51.8 °F 53% 30.29 in 10.0 mi Calm Calm - N/A   Clear
7:40 PM 68.0 °F 51.8 °F 56% 30.30 in 10.0 mi Calm Calm - N/A   Clear
8:00 PM 66.2 °F 53.6 °F 64% 30.30 in 10.0 mi Calm Calm - N/A   Scattered Clouds
8:20 PM 64.4 °F 53.6 °F 68% 30.30 in 10.0 mi Calm Calm - N/A   Clear
8:40 PM 64.4 °F 53.6 °F 68% 30.30 in 10.0 mi Calm Calm - N/A   Clear
9:20 PM 64.4 °F 53.6 °F 68% 30.31 in 10.0 mi Calm Calm - N/A   Mostly Cloudy
9:40 PM 64.4 °F 53.6 °F 68% 30.30 in 10.0 mi SE 3.5 mph - N/A   Overcast
10:00 PM 64.4 °F 51.8 °F 64% 30.31 in 10.0 mi Calm Calm - N/A   Overcast
10:20 PM 64.4 °F 51.8 °F 64% 30.31 in 10.0 mi SSE 3.5 mph - N/A   Overcast
10:40 PM 64.4 °F 51.8 °F 64% 30.31 in 10.0 mi Calm Calm - N/A   Overcast
11:00 PM 64.4 °F 51.8 °F 64% 30.32 in 10.0 mi Calm Calm - N/A   Overcast
11:20 PM 64.4 °F 51.8 °F 64% 30.32 in 10.0 mi Calm Calm - N/A   Overcast
11:40 PM 64.4 °F 51.8 °F 64% 30.32 in 10.0 mi Calm Calm - N/A   Overcast